Terug naar catalogus

STARLINK-11423

ActiefCommunicatieVLEO
NORAD 61950·PAYLOAD·🇺🇸 United States

Gelanceerd Nov 14, 2024 vanaf Vandenberg Space Force Base

Loading…

Volgende Passages (komende 24 uur)

TLE

VersSource: CelesTrak SupGP

Epoch: Sep 14, 2026, 20:52 UTC

1 61950C 24209M   26257.86993056 -.00001576  00000+0 -12978-4 0  2574
2 61950  53.1567 158.6734 0001091  91.9283 166.2609 15.69719695    16

Volg STARLINK-11423 in realtime met AllMySat

Download on the App Store